weather.gov     
National Weather Service

Terminal Aerodrome Forecast
NWS Homepage
This page is being discontinued on March 12, 2014.
The same data is available at this site. Please update your bookmarks.
Thank you, and we apologize for the inconvenience.
Please send an email to SR-SRH.Webmaster@noaa.gov with any concerns.


Current Version
Previous Version:    01  02  03  04  05  06  07  08  09  10  11  12  13  14  15  16  17  
[Printable]
209
FTUS46 KSGX 310500
TAFONT
TAF
KONT 310520Z 3106/0112 VRB04KT P6SM BKN180
     FM311400 VRB04KT 2SM BR BKN005
     FM311600 VRB04KT 4SM BR OVC009
     FM311900 VRB03KT 6SM HZ SCT010
     FM312100 24011KT P6SM SCT015 BKN035
     FM010200 26011KT P6SM VCSH BKN017 OVC040
     FM010700 26011KT P6SM -SHRA BKN015 OVC035=


U.S. Dept. of Commerce
NOAA National Weather Service
1325 East West Highway
Silver Spring, MD 20910
E-mail: w-nws.webmaster@noaa.gov
Page last modified: May 16, 2007
NATIONAL WEATHER SERVICE: for Safety, for Work, for Fun - FOR LIFE